N2PUI Weather Reports


time (UTC)temp
C
wind
direction
speed
KPH
gust
KPH
rain 1hr
cm
rain 24hr
cm
rain mn
cm
humidity
%
barometer
mb
20260901022248 18 163 0.0 0.0 0.00 0.99 0.99 95 1018.5
20260901021742 18 152 0.0 0.0 0.00 0.99 0.99 95 1018.7
20260901021238 18 162 0.0 0.0 0.00 0.99 0.99 95 1018.5
20260901020733 18 160 0.0 0.0 0.00 0.99 0.99 95 1018.7
20260901020228 18 145 0.0 0.0 0.00 0.99 0.99 95 1018.8
20260901015723 18 154 0.0 0.0 0.00 0.99 0.99 95 1018.5
20260901015218 18 153 0.0 0.0 0.18 0.99 0.99 95 1018.8
20260901014713 18 154 0.0 0.0 0.18 0.99 0.99 95 1018.6
20260901014209 18 154 0.0 0.0 0.00 0.97 0.97 95 1018.6
20260901013704 18 154 0.0 0.0 0.13 0.97 0.97 95 1018.7
20260901013200 18 154 0.0 0.0 0.30 0.97 0.97 95 1018.8
20260901012655 18 154 0.0 0.0 0.18 0.94 0.94 95 1018.9
20260901012149 18 154 0.0 0.0 0.00 0.91 0.91 95 1018.9
20260901011640 18 154 0.0 0.0 0.00 0.91 0.91 95 1018.7
20260901011139 18 152 0.0 0.0 0.00 0.91 0.91 95 1018.7
20260901010633 18 156 0.0 0.0 0.00 0.91 0.91 95 1018.6
20260901010132 18 143 0.0 0.0 0.00 0.91 0.91 95 1018.7
20260901005626 18 129 0.0 0.0 0.00 0.91 0.91 95 1018.7
20260901005121 18 150 0.0 0.0 0.13 0.91 0.91 95 1018.4
20260901004621 18 130 0.0 0.0 0.13 0.91 0.91 95 1018.4
20260901004116 18 147 0.0 0.0 0.00 0.89 0.89 95 1018.7
20260901003612 18 130 0.0 0.0 0.00 0.89 0.89 95 1018.6
20260901003110 18 143 0.0 0.0 0.00 0.89 0.89 95 1018.5
20260901002610 18 117 0.0 0.0 0.00 0.89 0.89 95 1018.3
20260901002105 18 131 0.0 1.6 0.00 0.89 0.89 95 1018.2
20260901001559 18 125 3.2 3.2 0.00 0.89 0.89 95 1018.1
20260901001054 18 129 1.6 3.2 0.00 0.89 0.89 95 1018.1
20260901000549 18 130 3.2 3.2 0.00 0.89 0.89 95 1018.2
20260901000045 18 126 0.0 0.0 0.00 0.89 0.89 95 1018.2
20260831235538 18 135 1.6 1.6 0.00 0.89 0.89 95 1018.4
20260831235034 18 135 3.2 3.2 0.18 0.89 0.89 95 1018.3
20260831234528 18 122 0.0 0.0 0.18 0.89 0.89 95 1018.3
20260831234025 18 138 0.0 0.0 0.00 0.86 0.86 95 1018.5
20260831233520 18 138 0.0 0.0 0.00 0.86 0.86 95 1018.4
20260831233016 18 132 0.0 0.0 0.00 0.86 0.86 95 1018.3
20260831232511 18 116 1.6 1.6 0.00 0.86 0.86 95 1018.5
20260831232006 18 136 0.0 0.0 0.00 0.86 0.86 95 1018.5
20260831231502 18 146 0.0 0.0 0.00 0.86 0.86 95 1018.3
20260831230957 18 138 3.2 4.8 0.00 0.86 0.86 95 1018.6
20260831230453 18 151 0.0 0.0 0.00 0.86 0.86 95 1018.7
20260831225947 18 137 0.0 0.0 0.00 0.86 0.86 95 1018.9
20260831225443 18 139 0.0 0.0 0.00 0.86 0.86 95 1018.8
20260831224938 18 137 0.0 0.0 0.00 0.86 0.86 95 1018.8
20260831224437 18 142 0.0 0.0 0.00 0.86 0.86 95 1018.9
20260831223932 18 131 0.0 0.0 0.00 0.86 0.86 95 1019.0
20260831223428 18 145 0.0 0.0 0.00 0.86 0.86 95 1018.9
20260831222925 18 142 0.0 0.0 0.00 0.86 0.86 95 1019.0
20260831222420 18 140 0.0 0.0 0.18 0.86 0.86 95 1019.0
20260831221915 18 146 0.0 0.0 0.18 0.86 0.86 95 1019.2
20260831221411 18 127 0.0 0.0 0.13 0.84 0.84 95 1019.2
20260831220905 18 145 0.0 0.0 0.13 0.84 0.84 95 1019.2
20260831220355 18 144 0.0 0.0 0.18 0.81 0.81 95 1019.2
20260831215850 18 143 0.0 0.0 0.30 0.81 0.81 95 1019.5
20260831215346 18 152 0.0 0.0 0.00 0.76 0.76 95 1019.6
20260831214842 18 153 0.0 0.0 0.00 0.76 0.76 95 1019.4
20260831214339 18 151 0.0 0.0 0.18 0.76 0.76 95 1019.4
20260831213834 18 127 0.0 0.0 0.18 0.76 0.76 95 1019.4
20260831213331 18 141 0.0 0.0 0.13 0.74 0.74 95 1019.6
20260831212826 18 140 0.0 0.0 0.13 0.74 0.74 95 1019.5
20260831212322 18 140 1.6 1.6 0.18 0.71 0.71 95 1019.5
20260831211820 18 154 0.0 0.0 0.30 0.71 0.71 95 1019.5
20260831211316 18 148 0.0 0.0 0.43 0.69 0.69 95 1019.5
20260831210810 18 143 0.0 0.0 0.48 0.66 0.66 95 1019.5
20260831210307 18 132 0.0 0.0 0.18 0.61 0.61 95 1019.5
20260831205806 18 142 1.6 3.2 0.00 0.58 0.58 95 1019.6
20260831205305 18 148 0.0 0.0 0.00 0.58 0.58 95 1019.4
20260831204756 18 115 3.2 4.8 0.00 0.58 0.58 95 1019.4
20260831204255 18 135 4.8 4.8 0.13 0.58 0.58 95 1019.4
20260831203755 18 133 3.2 3.2 0.13 0.58 0.58 95 1019.5
20260831203249 18 131 4.8 4.8 0.00 0.56 0.56 95 1019.7
20260831202748 18 134 3.2 3.2 0.00 0.56 0.56 95 1019.6
20260831202242 18 140 1.6 1.6 0.00 0.56 0.56 95 1019.5
20260831201737 18 122 4.8 4.8 0.00 0.56 0.56 95 1019.4
20260831201236 18 121 0.0 0.0 0.00 0.56 0.56 95 1019.7
20260831200732 18 138 3.2 3.2 0.00 0.56 0.56 95 1019.8
20260831200232 18 129 1.6 1.6 0.00 0.56 0.56 95 1019.7
20260831195727 18 109 0.0 1.6 0.00 0.56 0.56 95 1019.8
20260831195223 18 116 4.8 4.8 0.00 0.56 0.56 95 1019.8
20260831194718 18 107 0.0 0.0 0.00 0.56 0.56 95 1019.7
20260831194214 18 114 1.6 1.6 0.00 0.56 0.56 95 1019.8
20260831193707 18 93 0.0 0.0 0.00 0.56 0.56 95 1020.0
20260831193202 18 121 4.8 8.0 0.00 0.56 0.56 95 1020.0
20260831192657 18 133 3.2 3.2 0.00 0.56 0.56 95 1020.0
20260831192153 18 120 3.2 3.2 0.00 0.56 0.56 95 1019.8
20260831191648 18 122 3.2 3.2 0.18 0.56 0.56 95 1020.1
20260831191144 18 128 3.2 3.2 0.18 0.56 0.56 95 1020.1
20260831190639 18 124 1.6 1.6 0.00 0.53 0.53 95 1020.0
20260831190138 18 135 1.6 3.2 0.00 0.53 0.53 95 1020.2
20260831185634 18 112 6.4 8.0 0.00 0.53 0.53 95 1020.1
20260831185130 18 153 3.2 3.2 0.00 0.53 0.53 95 1020.2
20260831184629 18 104 8.0 11.3 0.00 0.53 0.53 95 1020.3
20260831184125 18 129 6.4 9.7 0.00 0.53 0.53 95 1020.3
20260831183624 18 106 4.8 4.8 0.00 0.53 0.53 95 1020.6
20260831183124 18 161 3.2 3.2 0.00 0.53 0.53 95 1020.5
20260831182623 18 127 4.8 8.0 0.00 0.53 0.53 95 1020.6
20260831182119 18 131 3.2 4.8 0.00 0.53 0.53 95 1020.7
20260831181614 18 119 3.2 3.2 0.00 0.53 0.53 95 1020.7
20260831181114 18 108 4.8 4.8 0.00 0.53 0.53 95 1020.7
20260831180609 18 128 3.2 3.2 0.00 0.53 0.53 95 1020.9
20260831180104 18 142 1.6 1.6 0.00 0.53 0.53 95 1020.9
20260831175559 18 134 0.0 1.6 0.00 0.53 0.53 95 1020.7
20260831175056 18 129 1.6 1.6 0.00 0.53 0.53 95 1020.8
20260831174551 18 173 6.4 8.0 0.00 0.53 0.53 95 1021.1
20260831174050 18 118 3.2 4.8 0.18 0.53 0.53 95 1021.0
20260831173549 18 147 4.8 4.8 0.30 0.53 0.53 95 1021.0
20260831173045 18 141 3.2 4.8 0.13 0.51 0.51 95 1021.3
20260831172540 18 120 4.8 8.0 0.30 0.48 0.48 95 1021.2
20260831172035 18 124 3.2 4.8 0.48 0.48 0.48 95 1021.4
20260831171531 18 130 3.2 3.2 0.30 0.43 0.43 95 1021.3
20260831171027 18 104 4.8 4.8 0.30 0.41 0.41 95 1021.3
20260831170523 18 117 3.2 4.8 0.30 0.38 0.38 95 1021.4
20260831170021 18 129 4.8 4.8 0.13 0.36 0.36 95 1021.3
20260831165521 18 121 6.4 8.0 0.18 0.33 0.33 95 1021.3
20260831165018 18 121 3.2 3.2 0.18 0.33 0.33 95 1021.6
20260831164513 18 117 3.2 4.8 0.13 0.30 0.30 95 1021.6
20260831164009 18 111 4.8 8.0 0.30 0.30 0.30 95 1021.6
20260831163508 18 123 4.8 8.0 0.30 0.28 0.28 95 1021.6
20260831163004 18 130 1.6 3.2 0.61 0.25 0.25 95 1021.8
20260831162458 18 127 4.8 8.0 0.66 0.23 0.23 95 1021.6
20260831161955 18 129 4.8 4.8 0.48 0.15 0.15 95 1021.5
20260831161453 18 127 3.2 3.2 0.30 0.13 0.13 95 1021.7
20260831160948 18 157 0.0 1.6 0.13 0.08 0.08 94 1021.9
20260831160447 18 163 0.0 0.0 0.43 0.08 0.08 93 1022.0
20260831155948 18 164 0.0 0.0 0.30 0.05 0.05 92 1022.0
20260831155443 18 152 0.0 0.0 0.00 0.00 0.00 91 1021.7
20260831154938 18 128 3.2 3.2 0.00 0.00 0.00 91 1022.0
20260831154435 18 134 3.2 3.2 0.00 0.00 0.00 90 1021.8
20260831153933 18 138 1.6 1.6 0.00 0.00 0.00 90 1021.6
20260831153429 18 133 1.6 3.2 0.00 0.00 0.00 90 1022.0
20260831152925 18 128 1.6 1.6 0.00 0.00 0.00 90 1021.9
20260831152420 18 106 1.6 3.2 0.00 0.00 0.00 90 1021.8
20260831151915 18 118 3.2 3.2 0.00 0.00 0.00 91 1021.7
20260831151414 18 118 3.2 4.8 0.00 0.00 0.00 91 1021.9
20260831150910 18 103 4.8 8.0 0.00 0.00 0.00 91 1021.5
20260831150405 18 155 4.8 4.8 0.00 0.00 0.00 91 1021.6
20260831145904 18 139 3.2 3.2 0.00 0.00 0.00 91 1021.5
20260831145401 18 126 3.2 4.8 0.00 0.00 0.00 92 1021.5
20260831144856 18 141 4.8 8.0 0.00 0.00 0.00 92 1021.6
20260831144352 18 124 1.6 3.2 0.00 0.00 0.00 92 1021.5
20260831143847 18 122 4.8 4.8 0.00 0.00 0.00 93 1021.6
20260831143342 18 177 4.8 8.0 0.00 0.00 0.00 94 1021.7
20260831142837 17 131 4.8 4.8 0.00 0.00 0.00 95 1021.7
20260831142332 17 132 3.2 4.8 0.00 0.00 0.00 95 1021.4
20260831141832 17 113 4.8 4.8 0.00 0.00 0.00 95 1021.4
20260831141327 17 104 4.8 8.0 0.00 0.00 0.00 95 1021.3
20260831140822 17 110 4.8 8.0 0.00 0.00 0.00 95 1021.5
20260831140316 17 171 4.8 4.8 0.00 0.00 0.00 95 1021.6
20260831135814 17 169 1.6 3.2 0.00 0.00 0.00 95 1021.6
20260831135310 17 125 4.8 4.8 0.00 0.00 0.00 95 1021.6
20260831134805 16 146 0.0 0.0 0.00 0.00 0.00 95 1021.6
20260831134302 17 164 0.0 0.0 0.00 0.00 0.00 95 1021.9
20260831133800 16 155 0.0 0.0 0.00 0.00 0.00 95 1021.6
20260831133255 16 134 0.0 0.0 0.00 0.00 0.00 95 1021.8
20260831132750 16 163 0.0 0.0 0.00 0.00 0.00 95 1021.9
20260831132245 16 167 0.0 0.0 0.00 0.00 0.00 95 1021.9
20260831131744 16 155 0.0 0.0 0.00 0.00 0.00 95 1022.0
20260831131241 16 167 0.0 1.6 0.00 0.00 0.00 95 1022.1
20260831130736 16 167 0.0 0.0 0.00 0.00 0.00 95 1021.9
20260831130231 16 167 0.0 0.0 0.00 0.00 0.00 95 1021.8
20260831125730 16 166 0.0 0.0 0.00 0.00 0.00 95 1021.8
20260831125226 16 167 0.0 0.0 0.00 0.00 0.00 95 1021.6
20260831124720 15 152 0.0 0.0 0.00 0.00 0.00 95 1021.6
20260831124217 15 167 0.0 0.0 0.00 0.00 0.00 95 1021.7
20260831123716 15 167 0.0 0.0 0.00 0.00 0.00 95 1021.9
20260831123216 15 162 0.0 0.0 0.00 0.00 0.00 95 1021.9
20260831122710 15 161 0.0 0.0 0.00 0.00 0.00 95 1021.9
20260831122206 15 162 0.0 0.0 0.00 0.00 0.00 95 1022.0
20260831121705 15 174 0.0 1.6 0.00 0.00 0.00 95 1022.0
20260831121202 15 165 0.0 0.0 0.00 0.00 0.00 95 1022.1
20260831120657 15 165 0.0 0.0 0.00 0.00 0.00 95 1022.2
20260831120151 15 159 0.0 0.0 0.00 0.00 0.00 95 1022.4
20260831115647 15 159 0.0 0.0 0.00 0.00 0.00 95 1022.3
20260831115143 15 147 0.0 0.0 0.00 0.00 0.00 95 1022.2
20260831114642 15 148 0.0 0.0 0.00 0.00 0.00 95 1022.1
20260831114136 15 166 0.0 0.0 0.00 0.00 0.00 95 1022.2
20260831113631 15 166 0.0 0.0 0.00 0.00 0.00 95 1021.9
20260831113126 15 167 0.0 0.0 0.00 0.00 0.00 95 1021.9
20260831112625 15 143 0.0 0.0 0.00 0.00 0.00 95 1021.8
20260831112120 15 163 0.0 0.0 0.00 0.00 0.00 95 1021.8
20260831111616 15 165 0.0 0.0 0.00 0.00 0.00 95 1021.8
20260831111112 15 184 0.0 0.0 0.00 0.00 0.00 95 1022.0
20260831110607 15 175 0.0 0.0 0.00 0.00 0.00 95 1021.6
20260831105601 15 159 0.0 0.0 0.00 0.00 0.00 95 1021.5
20260831105056 15 156 0.0 0.0 0.00 0.00 0.00 95 1021.7
20260831104552 15 149 0.0 0.0 0.00 0.00 0.00 95 1021.6
20260831104048 15 148 0.0 0.0 0.00 0.00 0.00 95 1021.4
20260831103543 15 158 0.0 0.0 0.00 0.00 0.00 95 1021.5
20260831103033 15 118 0.0 0.0 0.00 0.00 0.00 95 1021.3
20260831102527 15 153 0.0 0.0 0.00 0.00 0.00 95 1021.4
20260831102022 15 151 0.0 0.0 0.00 0.00 0.00 95 1021.2
20260831101517 15 140 0.0 0.0 0.00 0.00 0.00 95 1021.3
20260831101014 15 144 0.0 0.0 0.00 0.00 0.00 95 1021.5
20260831100509 15 144 0.0 0.0 0.00 0.00 0.00 95 1021.3
20260831100005 15 144 0.0 0.0 0.00 0.00 0.00 95 1021.4
20260831095503 15 144 0.0 0.0 0.00 0.00 0.00 95 1021.4
20260831094958 15 145 0.0 0.0 0.00 0.00 0.00 95 1021.3
20260831094454 15 134 0.0 0.0 0.00 0.00 0.00 95 1021.3
20260831093950 15 144 0.0 0.0 0.00 0.00 0.00 95 1021.4
20260831093445 15 161 0.0 0.0 0.00 0.00 0.00 95 1021.4
20260831092941 15 163 0.0 0.0 0.00 0.00 0.00 95 1021.3
20260831092437 15 162 0.0 0.0 0.00 0.00 0.00 95 1021.4
20260831091932 15 163 0.0 0.0 0.00 0.00 0.00 95 1021.4
20260831091427 15 156 0.0 0.0 0.00 0.00 0.00 95 1021.4
20260831090922 15 163 0.0 0.0 0.00 0.00 0.00 95 1021.4
20260831090418 15 165 0.0 0.0 0.00 0.00 0.00 95 1021.3
20260831085914 15 166 0.0 0.0 0.00 0.00 0.00 95 1021.6
20260831085409 15 166 0.0 0.0 0.00 0.00 0.00 95 1021.5
20260831084909 15 146 0.0 0.0 0.00 0.00 0.00 95 1021.3
20260831084405 15 140 0.0 0.0 0.00 0.00 0.00 95 1021.3
20260831083901 15 137 0.0 0.0 0.00 0.00 0.00 95 1021.3
20260831083356 15 128 0.0 0.0 0.00 0.00 0.00 95 1021.4
20260831082855 15 165 0.0 0.0 0.00 0.00 0.00 95 1021.4
20260831082349 15 165 0.0 0.0 0.00 0.00 0.00 95 1021.6
20260831081845 15 165 0.0 0.0 0.00 0.00 0.00 95 1021.4
20260831081340 15 165 0.0 0.0 0.00 0.00 0.00 95 1021.3
20260831080837 15 163 0.0 0.0 0.00 0.00 0.00 95 1021.3
20260831080336 15 141 0.0 0.0 0.00 0.00 0.00 95 1021.1
20260831075832 15 141 0.0 0.0 0.00 0.00 0.00 95 1021.2
20260831075327 15 140 0.0 0.0 0.00 0.00 0.00 95 1021.3
20260831074822 15 141 0.0 0.0 0.00 0.00 0.00 95 1021.4
20260831074321 15 147 0.0 0.0 0.00 0.00 0.00 95 1021.2
20260831073817 15 147 0.0 0.0 0.00 0.00 0.00 95 1021.3
20260831073316 15 173 0.0 0.0 0.00 0.00 0.00 95 1021.2
20260831072811 15 154 0.0 0.0 0.00 0.00 0.00 95 1021.2
20260831072307 15 154 0.0 0.0 0.00 0.00 0.00 95 1021.3
20260831071803 15 154 0.0 0.0 0.00 0.00 0.00 95 1021.1
20260831071257 15 154 0.0 0.0 0.00 0.00 0.00 95 1021.2
20260831070757 15 153 0.0 0.0 0.00 0.00 0.00 95 1021.2
20260831070256 15 154 0.0 0.0 0.00 0.00 0.00 95 1021.3
20260831065755 15 154 0.0 0.0 0.00 0.00 0.00 95 1021.2
20260831065253 15 154 0.0 0.0 0.00 0.00 0.00 95 1021.3
20260831064748 15 154 0.0 0.0 0.00 0.00 0.00 95 1021.1
20260831064243 15 155 0.0 0.0 0.00 0.00 0.00 95 1021.1
20260831063740 15 156 0.0 0.0 0.00 0.00 0.00 95 1021.0
20260831063239 15 157 0.0 0.0 0.00 0.00 0.00 95 1021.4
20260831062734 15 142 0.0 0.0 0.00 0.00 0.00 95 1021.1
20260831062229 15 142 0.0 0.0 0.00 0.00 0.00 95 1021.3
20260831061727 15 142 0.0 0.0 0.00 0.00 0.00 95 1021.4
20260831061222 15 154 0.0 0.0 0.00 0.00 0.00 95 1021.6
20260831060718 15 157 0.0 0.0 0.00 0.00 0.00 95 1021.4
20260831060213 15 139 0.0 0.0 0.00 0.00 0.00 95 1021.8
20260831055713 15 139 0.0 0.0 0.00 0.00 0.00 95 1021.8
20260831055207 15 139 0.0 0.0 0.00 0.00 0.00 95 1022.0
20260831054702 15 139 0.0 0.0 0.00 0.00 0.00 95 1021.7
20260831054201 15 140 0.0 0.0 0.00 0.00 0.00 95 1021.6
20260831053656 15 139 0.0 0.0 0.00 0.00 0.00 95 1021.8
20260831053154 15 131 0.0 0.0 0.00 0.00 0.00 95 1021.9
20260831052649 15 163 0.0 0.0 0.00 0.00 0.00 94 1021.9
20260831052148 15 163 0.0 0.0 0.00 0.00 0.00 94 1021.9
20260831051646 15 163 0.0 0.0 0.00 0.00 0.00 94 1021.8
20260831051145 15 167 0.0 0.0 0.00 0.00 0.00 94 1021.6
20260831050640 15 172 0.0 0.0 0.00 0.00 0.00 94 1021.9
20260831050139 15 151 0.0 0.0 0.00 0.00 0.00 94 1021.7
20260831045638 16 144 0.0 0.0 0.00 0.00 0.00 94 1021.8
20260831045133 16 134 0.0 0.0 0.00 0.00 0.00 93 1021.7
20260831044629 16 154 0.0 0.0 0.00 0.00 0.00 93 1021.6
20260831044124 16 134 0.0 0.0 0.00 0.00 0.00 93 1021.7
20260831043619 15 134 0.0 0.0 0.00 0.00 0.00 93 1021.7
20260831043109 16 134 0.0 0.0 0.00 0.00 0.00 93 1021.9
20260831042608 16 137 0.0 0.0 0.00 0.00 0.00 92 1021.8
20260831042103 16 135 0.0 0.0 0.00 0.00 0.00 92 1021.5
20260831041558 16 135 0.0 0.0 0.00 0.00 0.00 92 1021.8
20260831041057 16 135 0.0 0.0 0.00 0.00 0.00 92 1021.8
20260831040552 16 136 0.0 0.0 0.00 0.00 0.00 92 1021.7
20260831040051 16 134 0.0 0.0 0.00 0.00 0.00 92 1021.8
20260831035543 16 138 0.0 0.0 0.00 0.00 0.00 91 1021.6
20260831035039 16 138 0.0 0.0 0.00 0.00 0.00 91 1021.6
20260831034538 17 138 0.0 0.0 0.00 0.00 0.00 91 1021.8
20260831034034 16 139 0.0 0.0 0.00 0.00 0.00 91 1021.6
20260831033530 17 139 0.0 0.0 0.00 0.00 0.00 90 1021.8
20260831033025 17 139 0.0 0.0 0.00 0.00 0.00 90 1021.7
20260831032524 17 139 0.0 0.0 0.00 0.00 0.00 90 1021.7
20260831032020 17 139 0.0 0.0 0.00 0.00 0.00 90 1021.8
20260831031519 17 140 0.0 0.0 0.00 0.00 0.00 90 1021.6
20260831031019 17 140 0.0 0.0 0.00 0.00 0.00 90 1021.8
20260831030518 17 140 0.0 0.0 0.00 0.00 0.00 90 1021.7
20260831030017 17 140 0.0 0.0 0.00 0.00 0.00 90 1021.9
20260831025510 17 138 0.0 0.0 0.00 0.00 0.00 89 1021.7
20260831025005 17 160 0.0 0.0 0.00 0.00 0.00 89 1021.6
20260831024501 18 160 0.0 0.0 0.00 0.00 0.00 89 1021.7
20260831024000 18 162 0.0 0.0 0.00 0.00 0.00 89 1021.5
20260831023458 18 162 0.0 0.0 0.00 0.00 0.00 89 1021.9
20260831022953 18 151 0.0 0.0 0.00 0.00 0.00 89 1021.7
20260831022452 18 148 0.0 0.0 0.00 0.00 0.00 88 1021.7